| time (UTC) | temp F | wind direction | speed knots | gust knots | rain 1hr in | rain 24hr in | rain mn in | humidity % | barometer mb |
| 20260510153436 | 59 | 55 | 1.7 | 6.1 | 0.00 | 0.00 | 0.00 | 42 | 1015.0 |
| 20260510152930 | 59 | 261 | 1.7 | 6.1 | 0.00 | 0.00 | 0.00 | 41 | 1015.0 |
| 20260510152425 | 60 | 269 | 0.9 | 3.5 | 0.00 | 0.00 | 0.00 | 43 | 1015.0 |
| 20260510151915 | 59 | 294 | 1.7 | 3.5 | 0.00 | 0.00 | 0.00 | 42 | 1015.2 |
| 20260510151411 | 60 | 43 | 0.9 | 3.5 | 0.00 | 0.00 | 0.00 | 42 | 1015.2 |
| 20260510151123 | 59 | 147 | 0.9 | 4.3 | 0.00 | 0.00 | 0.00 | 43 | 1015.2 |
| 20260510150401 | 59 | 127 | 1.7 | 4.3 | 0.00 | 0.00 | 0.00 | 42 | 1015.2 |
| 20260510145855 | 59 | 167 | 1.7 | 3.5 | 0.00 | 0.00 | 0.00 | 42 | 1015.2 |
| 20260510145349 | 58 | 44 | 1.7 | 3.5 | 0.00 | 0.00 | 0.00 | 45 | 1015.2 |
| 20260510144841 | 58 | 125 | 0.9 | 3.5 | 0.00 | 0.00 | 0.00 | 44 | 1015.2 |
| 20260510144332 | 58 | 110 | 0.9 | 4.3 | 0.00 | 0.00 | 0.00 | 46 | 1015.2 |
| 20260510143832 | 57 | 340 | 1.7 | 5.2 | 0.00 | 0.00 | 0.00 | 45 | 1015.2 |
| 20260510143323 | 57 | 325 | 2.6 | 6.1 | 0.00 | 0.00 | 0.00 | 46 | 1015.2 |
| 20260510142818 | 56 | 71 | 2.6 | 6.1 | 0.00 | 0.00 | 0.00 | 47 | 1015.2 |
| 20260510142313 | 56 | 61 | 1.7 | 4.3 | 0.00 | 0.00 | 0.00 | 47 | 1015.2 |
| 20260510141804 | 56 | 355 | 2.6 | 5.2 | 0.00 | 0.00 | 0.00 | 48 | 1015.0 |
| 20260510141258 | 56 | 46 | 2.6 | 6.1 | 0.00 | 0.00 | 0.00 | 48 | 1015.0 |
| 20260510140751 | 56 | 138 | 2.6 | 6.1 | 0.00 | 0.00 | 0.00 | 48 | 1015.0 |
| 20260510140459 | 56 | 38 | 2.6 | 6.1 | 0.00 | 0.00 | 0.00 | 49 | 1014.6 |
| 20260510135739 | 55 | 46 | 1.7 | 5.2 | 0.00 | 0.00 | 0.00 | 48 | 1014.6 |
| 20260510135233 | 55 | 44 | 1.7 | 6.1 | 0.00 | 0.00 | 0.00 | 50 | 1014.6 |
| 20260510134728 | 55 | 47 | 3.5 | 7.0 | 0.00 | 0.00 | 0.00 | 49 | 1014.5 |
| 20260510134223 | 54 | 38 | 2.6 | 7.0 | 0.00 | 0.00 | 0.00 | 49 | 1014.5 |
| 20260510133715 | 54 | 44 | 1.7 | 6.1 | 0.00 | 0.00 | 0.00 | 51 | 1014.5 |
| 20260510133206 | 54 | 123 | 2.6 | 6.1 | 0.00 | 0.00 | 0.00 | 52 | 1014.5 |
| 20260510132655 | 53 | 70 | 2.6 | 6.1 | 0.00 | 0.00 | 0.00 | 53 | 1014.5 |
| 20260510132146 | 53 | 142 | 1.7 | 7.0 | 0.00 | 0.00 | 0.00 | 53 | 1014.5 |
| 20260510131646 | 53 | 42 | 1.7 | 7.0 | 0.00 | 0.00 | 0.00 | 55 | 1014.5 |
| 20260510131146 | 52 | 78 | 1.7 | 5.2 | 0.00 | 0.00 | 0.00 | 57 | 1014.5 |
| 20260510130645 | 51 | 62 | 2.6 | 5.2 | 0.00 | 0.00 | 0.00 | 57 | 1014.5 |
| 20260510130146 | 51 | 53 | 2.6 | 5.2 | 0.00 | 0.00 | 0.00 | 59 | 1014.3 |
| 20260510125649 | 51 | 50 | 2.6 | 7.0 | 0.00 | 0.00 | 0.00 | 60 | 1014.3 |
| 20260510125146 | 50 | 65 | 2.6 | 7.0 | 0.00 | 0.00 | 0.00 | 62 | 1014.3 |
| 20260510124645 | 50 | 47 | 2.6 | 7.0 | 0.00 | 0.00 | 0.00 | 63 | 1014.2 |
| 20260510124146 | 50 | 350 | 2.6 | 7.0 | 0.00 | 0.00 | 0.00 | 64 | 1014.2 |
| 20260510123644 | 49 | 49 | 2.6 | 6.1 | 0.00 | 0.00 | 0.00 | 65 | 1014.2 |
| 20260510123138 | 49 | 64 | 2.6 | 6.1 | 0.00 | 0.00 | 0.00 | 66 | 1014.0 |
| 20260510122631 | 49 | 57 | 2.6 | 6.1 | 0.00 | 0.00 | 0.00 | 67 | 1014.0 |
| 20260510122121 | 48 | 75 | 1.7 | 6.1 | 0.00 | 0.00 | 0.00 | 68 | 1014.0 |
| 20260510121621 | 48 | 65 | 0.9 | 3.5 | 0.00 | 0.00 | 0.00 | 68 | 1013.7 |
| 20260510121115 | 47 | 32 | 0.9 | 2.6 | 0.00 | 0.00 | 0.00 | 69 | 1013.7 |
| 20260510120609 | 47 | 28 | 0.9 | 2.6 | 0.00 | 0.00 | 0.00 | 69 | 1013.7 |
| 20260510115555 | 46 | 47 | 0.9 | 3.5 | 0.00 | 0.00 | 0.00 | 69 | 1013.4 |
| 20260510115044 | 46 | 45 | 1.7 | 3.5 | 0.00 | 0.00 | 0.00 | 68 | 1013.4 |
| 20260510114539 | 46 | 54 | 0.9 | 3.5 | 0.00 | 0.00 | 0.00 | 68 | 1013.3 |
| 20260510114038 | 46 | 28 | 0.9 | 3.5 | 0.00 | 0.00 | 0.00 | 68 | 1013.3 |
| 20260510113531 | 46 | 355 | 1.7 | 3.5 | 0.00 | 0.00 | 0.00 | 68 | 1013.3 |
| 20260510113025 | 45 | 14 | 0.9 | 2.6 | 0.00 | 0.00 | 0.00 | 68 | 1012.9 |
| 20260510112520 | 45 | 34 | 0.9 | 2.6 | 0.00 | 0.00 | 0.00 | 69 | 1012.9 |
| 20260510112017 | 44 | 53 | 0.9 | 2.6 | 0.00 | 0.00 | 0.00 | 69 | 1012.9 |
| 20260510111519 | 44 | 5 | 0.9 | 3.5 | 0.00 | 0.00 | 0.00 | 69 | 1012.7 |
| 20260510111014 | 44 | 10 | 0.9 | 3.5 | 0.00 | 0.00 | 0.00 | 69 | 1012.7 |
| 20260510110513 | 44 | 355 | 1.7 | 3.5 | 0.00 | 0.00 | 0.00 | 69 | 1012.7 |
| 20260510110013 | 43 | 9 | 0.9 | 2.6 | 0.00 | 0.00 | 0.00 | 69 | 1012.4 |
| 20260510105512 | 43 | 17 | 0.9 | 2.6 | 0.00 | 0.00 | 0.00 | 69 | 1012.4 |
| 20260510105013 | 44 | 20 | 0.9 | 2.6 | 0.00 | 0.00 | 0.00 | 68 | 1012.4 |
| 20260510104733 | 44 | 20 | 0.9 | 2.6 | 0.00 | 0.00 | 0.00 | 68 | 1012.3 |
| 20260510104011 | 44 | 19 | 0.9 | 2.6 | 0.00 | 0.00 | 0.00 | 68 | 1012.3 |
| 20260510103510 | 44 | 48 | 0.9 | 2.6 | 0.00 | 0.00 | 0.00 | 67 | 1012.3 |
| 20260510103009 | 44 | 51 | 0.9 | 2.6 | 0.00 | 0.00 | 0.00 | 67 | 1012.2 |
| 20260510102731 | 44 | 5 | 0.9 | 2.6 | 0.00 | 0.00 | 0.00 | 67 | 1012.2 |
| 20260510102009 | 44 | 0 | 0.9 | 2.6 | 0.00 | 0.00 | 0.00 | 66 | 1012.2 |
| 20260510101508 | 44 | 44 | 0.9 | 2.6 | 0.00 | 0.00 | 0.00 | 66 | 1012.1 |
| 20260510101008 | 45 | 43 | 0.9 | 2.6 | 0.00 | 0.00 | 0.00 | 66 | 1012.1 |
| 20260510100736 | 45 | 17 | 0.9 | 2.6 | 0.00 | 0.00 | 0.00 | 66 | 1012.1 |
| 20260510100007 | 45 | 34 | 1.7 | 3.5 | 0.00 | 0.00 | 0.00 | 65 | 1011.8 |
| 20260510095507 | 45 | 28 | 1.7 | 3.5 | 0.00 | 0.00 | 0.00 | 65 | 1011.8 |
| 20260510095226 | 45 | 43 | 1.7 | 3.5 | 0.00 | 0.00 | 0.00 | 65 | 1011.8 |
| 20260510094500 | 45 | 26 | 1.7 | 4.3 | 0.00 | 0.00 | 0.00 | 65 | 1011.6 |
| 20260510093952 | 45 | 35 | 0.9 | 4.3 | 0.00 | 0.00 | 0.00 | 65 | 1011.6 |
| 20260510093447 | 46 | 26 | 1.7 | 4.3 | 0.00 | 0.00 | 0.00 | 64 | 1011.5 |
| 20260510092938 | 46 | 32 | 1.7 | 4.3 | 0.00 | 0.00 | 0.00 | 64 | 1011.5 |
| 20260510092435 | 46 | 46 | 1.7 | 7.0 | 0.00 | 0.00 | 0.00 | 64 | 1011.5 |
| 20260510091928 | 46 | 42 | 1.7 | 7.0 | 0.00 | 0.00 | 0.00 | 64 | 1011.4 |
| 20260510091422 | 46 | 5 | 1.7 | 6.1 | 0.00 | 0.00 | 0.00 | 64 | 1011.4 |
| 20260510090919 | 46 | 31 | 2.6 | 6.1 | 0.00 | 0.00 | 0.00 | 64 | 1011.4 |
| 20260510090419 | 46 | 36 | 2.6 | 6.1 | 0.00 | 0.00 | 0.00 | 64 | 1011.4 |
| 20260510085919 | 46 | 55 | 2.6 | 6.1 | 0.00 | 0.00 | 0.00 | 64 | 1011.4 |
| 20260510085418 | 46 | 350 | 1.7 | 4.3 | 0.00 | 0.00 | 0.00 | 65 | 1011.4 |
| 20260510084919 | 46 | 19 | 1.7 | 6.1 | 0.00 | 0.00 | 0.00 | 65 | 1011.3 |
| 20260510084418 | 46 | 44 | 2.6 | 6.1 | 0.00 | 0.00 | 0.00 | 65 | 1011.3 |
| 20260510083918 | 47 | 53 | 2.6 | 6.1 | 0.00 | 0.00 | 0.00 | 65 | 1011.3 |
| 20260510083421 | 47 | 26 | 1.7 | 6.1 | 0.00 | 0.00 | 0.00 | 66 | 1011.0 |
| 20260510082921 | 47 | 49 | 1.7 | 5.2 | 0.00 | 0.00 | 0.00 | 67 | 1011.0 |
| 20260510082415 | 47 | 32 | 1.7 | 4.3 | 0.00 | 0.00 | 0.00 | 67 | 1011.0 |
| 20260510082124 | 46 | 5 | 1.7 | 4.3 | 0.00 | 0.00 | 0.00 | 68 | 1010.9 |
| 20260510081352 | 46 | 5 | 1.7 | 4.3 | 0.00 | 0.00 | 0.00 | 69 | 1010.9 |
| 20260510081105 | 46 | 43 | 1.7 | 3.5 | 0.00 | 0.00 | 0.00 | 70 | 1010.9 |
| 20260510080336 | 46 | 52 | 0.9 | 4.3 | 0.00 | 0.00 | 0.00 | 71 | 1010.8 |
| 20260510075830 | 46 | 57 | 1.7 | 4.3 | 0.00 | 0.00 | 0.00 | 72 | 1010.8 |
| 20260510075320 | 46 | 42 | 2.6 | 7.0 | 0.00 | 0.00 | 0.00 | 73 | 1010.8 |
| 20260510074817 | 46 | 59 | 1.7 | 7.0 | 0.00 | 0.00 | 0.00 | 74 | 1010.3 |
| 20260510074311 | 46 | 9 | 1.7 | 4.3 | 0.00 | 0.00 | 0.00 | 75 | 1010.3 |
| 20260510073805 | 46 | 34 | 1.7 | 4.3 | 0.00 | 0.00 | 0.00 | 75 | 1010.3 |
| 20260510073258 | 46 | 41 | 0.9 | 2.6 | 0.00 | 0.00 | 0.00 | 76 | 1009.8 |
| 20260510072754 | 46 | 42 | 0.9 | 1.7 | 0.00 | 0.00 | 0.00 | 75 | 1009.8 |
| 20260510072248 | 46 | 42 | 0.0 | 1.7 | 0.00 | 0.00 | 0.00 | 74 | 1009.8 |
| 20260510071738 | 46 | 42 | 0.9 | 1.7 | 0.00 | 0.00 | 0.00 | 74 | 1009.7 |
| 20260510071235 | 46 | 42 | 0.9 | 1.7 | 0.00 | 0.00 | 0.00 | 74 | 1009.7 |
| 20260510070729 | 47 | 45 | 0.0 | 0.9 | 0.00 | 0.00 | 0.00 | 73 | 1009.7 |
| 20260510070224 | 47 | 45 | 0.9 | 1.7 | 0.00 | 0.00 | 0.00 | 73 | 1009.3 |
| 20260510065718 | 46 | 45 | 0.9 | 1.7 | 0.00 | 0.00 | 0.00 | 74 | 1009.3 |
| 20260510065203 | 46 | 45 | 0.0 | 1.7 | 0.00 | 0.00 | 0.00 | 73 | 1009.3 |
| 20260510065146 | 47 | 45 | 0.0 | 0.0 | 0.00 | 0.00 | 0.00 | 73 | 1009.3 |
| 20260510064420 | 47 | 45 | 0.0 | 0.0 | 0.00 | 0.00 | 0.00 | 73 | 1009.3 |
| 20260510063653 | 47 | 45 | 0.0 | 0.0 | 0.00 | 0.00 | 0.00 | 72 | 1009.3 |
| 20260510063148 | 47 | 45 | 0.0 | 0.0 | 0.00 | 0.00 | 0.00 | 72 | 1009.2 |
| 20260510063124 | 47 | 45 | 0.0 | 0.0 | 0.00 | 0.00 | 0.00 | 72 | 1009.2 |
| 20260510062400 | 48 | 45 | 0.0 | 0.0 | 0.00 | 0.00 | 0.00 | 72 | 1009.2 |
| 20260510061630 | 48 | 45 | 0.0 | 0.9 | 0.00 | 0.00 | 0.00 | 71 | 1009.2 |
| 20260510061124 | 48 | 45 | 0.0 | 0.9 | 0.00 | 0.00 | 0.00 | 71 | 1009.2 |
| 20260510060617 | 48 | 45 | 0.0 | 0.0 | 0.00 | 0.00 | 0.00 | 71 | 1009.2 |
| 20260510060112 | 48 | 45 | 0.0 | 0.0 | 0.00 | 0.00 | 0.00 | 71 | 1009.0 |
| 20260510055605 | 48 | 45 | 0.0 | 0.0 | 0.00 | 0.00 | 0.00 | 71 | 1009.0 |
| 20260510055059 | 48 | 45 | 0.0 | 0.0 | 0.00 | 0.00 | 0.00 | 70 | 1009.0 |
| 20260510054554 | 48 | 45 | 0.0 | 0.9 | 0.00 | 0.00 | 0.00 | 70 | 1008.7 |
| 20260510054307 | 48 | 45 | 0.0 | 0.9 | 0.00 | 0.00 | 0.00 | 70 | 1008.7 |
| 20260510053541 | 48 | 45 | 0.0 | 0.0 | 0.00 | 0.00 | 0.00 | 70 | 1008.7 |
| 20260510053034 | 48 | 45 | 0.0 | 0.0 | 0.00 | 0.00 | 0.00 | 70 | 1008.5 |
| 20260510052523 | 48 | 45 | 0.0 | 0.0 | 0.00 | 0.00 | 0.00 | 70 | 1008.5 |
| 20260510052022 | 48 | 45 | 0.0 | 0.0 | 0.00 | 0.00 | 0.00 | 70 | 1008.5 |
| 20260510051518 | 49 | 45 | 0.0 | 0.0 | 0.00 | 0.00 | 0.00 | 70 | 1008.4 |
| 20260510051010 | 49 | 45 | 0.0 | 0.0 | 0.00 | 0.00 | 0.00 | 70 | 1008.4 |
| 20260510050508 | 49 | 45 | 0.0 | 0.0 | 0.00 | 0.00 | 0.00 | 70 | 1008.4 |
| 20260510050004 | 49 | 45 | 0.0 | 0.0 | 0.00 | 0.00 | 0.00 | 69 | 1008.2 |
| 20260510045455 | 49 | 45 | 0.0 | 0.0 | 0.00 | 0.00 | 0.00 | 69 | 1008.2 |
| 20260510044942 | 50 | 45 | 0.0 | 0.0 | 0.00 | 0.00 | 0.00 | 68 | 1007.9 |
| 20260510044710 | 50 | 45 | 0.0 | 0.0 | 0.00 | 0.00 | 0.00 | 68 | 1007.9 |
| 20260510043936 | 50 | 45 | 0.0 | 0.0 | 0.00 | 0.00 | 0.00 | 68 | 1007.9 |
| 20260510043658 | 50 | 45 | 0.0 | 0.0 | 0.00 | 0.00 | 0.00 | 67 | 1007.7 |
| 20260510042926 | 50 | 45 | 0.0 | 0.0 | 0.00 | 0.00 | 0.00 | 67 | 1007.7 |
| 20260510042419 | 51 | 45 | 0.0 | 0.0 | 0.00 | 0.00 | 0.00 | 67 | 1007.7 |
| 20260510041913 | 51 | 45 | 0.0 | 0.0 | 0.00 | 0.00 | 0.00 | 66 | 1007.6 |
| 20260510041401 | 51 | 45 | 0.0 | 0.0 | 0.00 | 0.00 | 0.00 | 65 | 1007.6 |
| 20260510040901 | 51 | 45 | 0.0 | 0.0 | 0.00 | 0.00 | 0.00 | 65 | 1007.6 |
| 20260510040616 | 52 | 45 | 0.9 | 2.6 | 0.00 | 0.00 | 0.00 | 64 | 1007.2 |
| 20260510035850 | 52 | 45 | 0.9 | 2.6 | 0.00 | 0.00 | 0.00 | 64 | 1007.2 |
| 20260510035342 | 52 | 43 | 0.9 | 2.6 | 0.00 | 0.00 | 0.00 | 64 | 1007.2 |
| 20260510034831 | 52 | 43 | 0.9 | 2.6 | 0.00 | 0.00 | 0.00 | 64 | 1007.1 |
| 20260510034318 | 52 | 46 | 0.9 | 2.6 | 0.00 | 0.00 | 0.00 | 64 | 1007.1 |
| 20260510033806 | 52 | 46 | 0.9 | 2.6 | 0.00 | 0.00 | 0.00 | 63 | 1007.1 |
| 20260510033255 | 53 | 46 | 0.9 | 1.7 | 0.00 | 0.00 | 0.00 | 63 | 1007.0 |
| 20260510032743 | 53 | 46 | 0.9 | 2.6 | 0.00 | 0.00 | 0.00 | 62 | 1007.0 |
| 20260510032230 | 53 | 46 | 0.9 | 2.6 | 0.00 | 0.00 | 0.00 | 61 | 1007.0 |
| 20260510031718 | 53 | 43 | 0.9 | 2.6 | 0.00 | 0.00 | 0.00 | 61 | 1007.0 |
| 20260510031244 | 54 | 46 | 1.7 | 3.5 | 0.00 | 0.00 | 0.00 | 60 | 1007.0 |
| 20260510030407 | 54 | 54 | 0.9 | 4.3 | 0.00 | 0.00 | 0.00 | 59 | 1006.7 |
| 20260510025638 | 54 | 30 | 1.7 | 3.5 | 0.00 | 0.00 | 0.00 | 58 | 1006.7 |
| 20260510025353 | 55 | 47 | 1.7 | 4.3 | 0.00 | 0.00 | 0.00 | 58 | 1006.7 |
| 20260510024623 | 55 | 50 | 1.7 | 4.3 | 0.00 | 0.00 | 0.00 | 57 | 1006.6 |
| 20260510024121 | 55 | 58 | 1.7 | 3.5 | 0.00 | 0.00 | 0.00 | 56 | 1006.6 |
| 20260510023614 | 55 | 67 | 2.6 | 6.1 | 0.00 | 0.00 | 0.00 | 56 | 1006.6 |
| 20260510023108 | 56 | 51 | 2.6 | 6.1 | 0.00 | 0.00 | 0.00 | 55 | 1006.3 |
| 20260510022820 | 56 | 58 | 2.6 | 7.0 | 0.00 | 0.00 | 0.00 | 55 | 1006.3 |
| 20260510022315 | 56 | 48 | 2.6 | 7.0 | 0.00 | 0.00 | 0.00 | 55 | 1006.3 |
| 20260510021551 | 56 | 44 | 3.5 | 8.7 | 0.00 | 0.00 | 0.00 | 54 | 1005.9 |
| 20260510021307 | 57 | 51 | 3.5 | 8.7 | 0.00 | 0.00 | 0.00 | 54 | 1005.9 |
| 20260510020538 | 57 | 19 | 4.3 | 8.7 | 0.00 | 0.00 | 0.00 | 54 | 1005.9 |
| 20260510020032 | 57 | 44 | 4.3 | 8.7 | 0.00 | 0.00 | 0.00 | 53 | 1005.5 |
| 20260510015745 | 58 | 57 | 3.5 | 8.7 | 0.00 | 0.00 | 0.00 | 53 | 1005.5 |
| 20260510015011 | 58 | 60 | 2.6 | 8.7 | 0.00 | 0.00 | 0.00 | 53 | 1005.5 |
| 20260510014511 | 58 | 62 | 3.5 | 11.3 | 0.00 | 0.00 | 0.00 | 51 | 1005.2 |
| 20260510014005 | 59 | 38 | 4.3 | 11.3 | 0.00 | 0.00 | 0.00 | 50 | 1005.2 |
| 20260510013459 | 60 | 46 | 4.3 | 11.3 | 0.00 | 0.00 | 0.00 | 50 | 1004.5 |
| 20260510012953 | 61 | 60 | 3.5 | 11.3 | 0.00 | 0.00 | 0.00 | 49 | 1004.5 |
| 20260510012447 | 63 | 69 | 3.5 | 9.6 | 0.00 | 0.00 | 0.00 | 48 | 1004.5 |
| 20260510012205 | 65 | 46 | 2.6 | 9.6 | 0.00 | 0.00 | 0.00 | 47 | 1003.8 |
| 20260510011431 | 66 | 242 | 1.7 | 6.1 | 0.00 | 0.00 | 0.00 | 51 | 1003.8 |
| 20260510010929 | 66 | 246 | 2.6 | 7.8 | 0.00 | 0.00 | 0.00 | 51 | 1003.8 |
| 20260510010423 | 67 | 304 | 3.5 | 8.7 | 0.00 | 0.00 | 0.00 | 50 | 1003.4 |
| 20260510005915 | 67 | 274 | 3.5 | 8.7 | 0.00 | 0.00 | 0.00 | 50 | 1003.4 |
| 20260510005629 | 67 | 238 | 3.5 | 6.1 | 0.00 | 0.00 | 0.00 | 49 | 1003.4 |
| 20260510005125 | 67 | 244 | 3.5 | 7.8 | 0.00 | 0.00 | 0.00 | 49 | 1003.3 |
| 20260510004358 | 68 | 252 | 4.3 | 9.6 | 0.00 | 0.00 | 0.00 | 48 | 1003.3 |
| 20260510003855 | 68 | 244 | 4.3 | 9.6 | 0.00 | 0.00 | 0.00 | 47 | 1003.3 |
| 20260510003354 | 68 | 258 | 3.5 | 10.4 | 0.00 | 0.00 | 0.00 | 47 | 1003.0 |
| 20260510002856 | 68 | 251 | 4.3 | 10.4 | 0.00 | 0.00 | 0.00 | 47 | 1003.0 |
| 20260510002613 | 68 | 264 | 4.3 | 10.4 | 0.00 | 0.00 | 0.00 | 47 | 1003.0 |
| 20260510001855 | 68 | 286 | 3.5 | 10.4 | 0.00 | 0.00 | 0.00 | 47 | 1002.9 |
| 20260510001840 | 69 | 213 | 3.5 | 9.6 | 0.00 | 0.00 | 0.00 | 47 | 1002.9 |
| 20260510000855 | 69 | 246 | 4.3 | 9.6 | 0.00 | 0.00 | 0.00 | 46 | 1002.9 |
| 20260510000356 | 69 | 235 | 6.1 | 13.0 | 0.00 | 0.00 | 0.00 | 45 | 1002.7 |
| 20260510000348 | 69 | 232 | 6.1 | 14.8 | 0.00 | 0.00 | 0.00 | 45 | 1002.7 |
| 20260509235618 | 70 | 231 | 6.1 | 14.8 | 0.00 | 0.00 | 0.00 | 44 | 1002.7 |
| 20260509234855 | 70 | 220 | 6.1 | 13.9 | 0.00 | 0.00 | 0.00 | 44 | 1002.5 |
| 20260509234354 | 70 | 275 | 5.2 | 13.9 | 0.00 | 0.00 | 0.00 | 44 | 1002.5 |
| 20260509233855 | 70 | 257 | 6.1 | 13.9 | 0.00 | 0.00 | 0.00 | 44 | 1002.5 |
| 20260509233355 | 70 | 254 | 7.0 | 13.9 | 0.00 | 0.00 | 0.00 | 43 | 1002.4 |
| 20260509232856 | 70 | 284 | 7.0 | 13.9 | 0.00 | 0.00 | 0.00 | 43 | 1002.4 |
| 20260509232350 | 71 | 263 | 6.1 | 13.9 | 0.00 | 0.00 | 0.00 | 42 | 1002.4 |
| 20260509232100 | 71 | 252 | 5.2 | 14.8 | 0.00 | 0.00 | 0.00 | 42 | 1002.3 |
| 20260509231558 | 71 | 218 | 6.1 | 14.8 | 0.00 | 0.00 | 0.00 | 42 | 1002.3 |
| 20260509230838 | 71 | 249 | 6.1 | 13.9 | 0.00 | 0.00 | 0.00 | 42 | 1002.3 |
| 20260509230339 | 71 | 256 | 6.1 | 13.9 | 0.00 | 0.00 | 0.00 | 41 | 1002.0 |
| 20260509225838 | 71 | 198 | 6.1 | 13.9 | 0.00 | 0.00 | 0.00 | 41 | 1002.0 |
| 20260509225338 | 72 | 273 | 6.1 | 13.0 | 0.00 | 0.00 | 0.00 | 40 | 1002.0 |
| 20260509224838 | 72 | 236 | 6.1 | 13.0 | 0.00 | 0.00 | 0.00 | 40 | 1001.8 |
| 20260509224606 | 72 | 244 | 5.2 | 13.9 | 0.00 | 0.00 | 0.00 | 40 | 1001.8 |
| 20260509223838 | 72 | 263 | 6.1 | 13.9 | 0.00 | 0.00 | 0.00 | 40 | 1001.8 |
| 20260509223602 | 71 | 274 | 7.0 | 13.0 | 0.00 | 0.00 | 0.00 | 40 | 1001.8 |
| 20260509223044 | 71 | 316 | 7.0 | 13.0 | 0.00 | 0.00 | 0.00 | 40 | 1001.8 |
| 20260509222322 | 71 | 273 | 7.0 | 17.4 | 0.00 | 0.00 | 0.00 | 40 | 1001.8 |
| 20260509221816 | 71 | 235 | 7.0 | 17.4 | 0.00 | 0.00 | 0.00 | 40 | 1001.6 |
| 20260509221310 | 71 | 232 | 7.8 | 16.5 | 0.00 | 0.00 | 0.00 | 39 | 1001.6 |
| 20260509221029 | 71 | 220 | 7.8 | 16.5 | 0.00 | 0.00 | 0.00 | 39 | 1001.6 |
| 20260509220254 | 71 | 228 | 7.0 | 16.5 | 0.00 | 0.00 | 0.00 | 39 | 1001.3 |
| 20260509215753 | 71 | 308 | 7.8 | 16.5 | 0.00 | 0.00 | 0.00 | 39 | 1001.3 |
| 20260509215247 | 72 | 290 | 7.8 | 16.5 | 0.00 | 0.00 | 0.00 | 38 | 1001.3 |
| 20260509214740 | 72 | 313 | 6.1 | 15.6 | 0.00 | 0.00 | 0.00 | 38 | 1001.2 |
| 20260509214458 | 72 | 289 | 7.0 | 13.9 | 0.00 | 0.00 | 0.00 | 39 | 1001.2 |
| 20260509213948 | 72 | 285 | 7.0 | 17.4 | 0.00 | 0.00 | 0.00 | 39 | 1001.2 |
| 20260509213443 | 72 | 237 | 5.2 | 17.4 | 0.00 | 0.00 | 0.00 | 38 | 1001.1 |
| 20260509212713 | 72 | 232 | 4.3 | 11.3 | 0.00 | 0.00 | 0.00 | 37 | 1001.1 |
| 20260509212210 | 72 | 292 | 4.3 | 11.3 | 0.00 | 0.00 | 0.00 | 37 | 1001.1 |
| 20260509211704 | 72 | 230 | 5.2 | 13.9 | 0.00 | 0.00 | 0.00 | 36 | 1001.1 |
| 20260509211154 | 72 | 209 | 6.1 | 13.9 | 0.00 | 0.00 | 0.00 | 36 | 1001.1 |
| 20260509210649 | 72 | 229 | 5.2 | 12.2 | 0.00 | 0.00 | 0.00 | 36 | 1001.1 |
| 20260509210409 | 72 | 254 | 6.1 | 12.2 | 0.00 | 0.00 | 0.00 | 37 | 1000.9 |
| 20260509205632 | 72 | 244 | 6.1 | 14.8 | 0.00 | 0.00 | 0.00 | 38 | 1000.9 |
| 20260509205130 | 72 | 266 | 6.1 | 14.8 | 0.00 | 0.00 | 0.00 | 37 | 1000.9 |
| 20260509204624 | 72 | 309 | 5.2 | 13.0 | 0.00 | 0.00 | 0.00 | 37 | 1001.0 |
| 20260509204117 | 72 | 273 | 5.2 | 15.6 | 0.00 | 0.00 | 0.00 | 38 | 1001.0 |
| 20260509203833 | 72 | 223 | 4.3 | 15.6 | 0.00 | 0.00 | 0.00 | 36 | 1001.0 |
| 20260509203107 | 72 | 260 | 3.5 | 7.0 | 0.00 | 0.00 | 0.00 | 36 | 1000.9 |
| 20260509202601 | 72 | 210 | 3.5 | 7.8 | 0.00 | 0.00 | 0.00 | 36 | 1000.9 |
| 20260509202050 | 72 | 273 | 5.2 | 11.3 | 0.00 | 0.00 | 0.00 | 35 | 1000.9 |
| 20260509201548 | 72 | 309 | 6.1 | 16.5 | 0.00 | 0.00 | 0.00 | 34 | 1001.0 |
| 20260509201048 | 73 | 241 | 6.1 | 16.5 | 0.00 | 0.00 | 0.00 | 33 | 1001.0 |
| 20260509200547 | 73 | 306 | 5.2 | 13.0 | 0.00 | 0.00 | 0.00 | 33 | 1001.0 |
| 20260509200052 | 73 | 277 | 4.3 | 12.2 | 0.00 | 0.00 | 0.00 | 34 | 1000.8 |
| 20260509195546 | 73 | 304 | 4.3 | 12.2 | 0.00 | 0.00 | 0.00 | 33 | 1000.8 |
| 20260509195045 | 74 | 275 | 5.2 | 13.9 | 0.00 | 0.00 | 0.00 | 34 | 1000.8 |
| 20260509194546 | 74 | 235 | 6.1 | 13.9 | 0.00 | 0.00 | 0.00 | 32 | 1000.8 |
| 20260509194045 | 74 | 284 | 4.3 | 13.9 | 0.00 | 0.00 | 0.00 | 34 | 1000.8 |
| 20260509193542 | 74 | 227 | 4.3 | 11.3 | 0.00 | 0.00 | 0.00 | 34 | 1000.8 |
| 20260509193305 | 74 | 290 | 4.3 | 9.6 | 0.00 | 0.00 | 0.00 | 34 | 1000.7 |
| 20260509192542 | 74 | 239 | 4.3 | 8.7 | 0.00 | 0.00 | 0.00 | 35 | 1000.7 |
| 20260509192040 | 74 | 240 | 4.3 | 8.7 | 0.00 | 0.00 | 0.00 | 35 | 1000.7 |
| 20260509191540 | 73 | 284 | 5.2 | 10.4 | 0.00 | 0.00 | 0.00 | 38 | 1001.1 |
| 20260509191040 | 72 | 257 | 4.3 | 13.9 | 0.00 | 0.00 | 0.00 | 40 | 1001.1 |
| 20260509190542 | 73 | 251 | 4.3 | 13.9 | 0.00 | 0.00 | 0.00 | 41 | 1001.1 |
| 20260509190042 | 73 | 205 | 6.1 | 14.8 | 0.00 | 0.00 | 0.00 | 42 | 1000.9 |
| 20260509185539 | 73 | 223 | 7.0 | 15.6 | 0.00 | 0.00 | 0.00 | 41 | 1000.9 |
| 20260509185307 | 74 | 249 | 7.0 | 16.5 | 0.00 | 0.00 | 0.00 | 41 | 1000.9 |
| 20260509184539 | 73 | 271 | 6.1 | 16.5 | 0.00 | 0.00 | 0.00 | 41 | 1000.8 |
| 20260509184039 | 73 | 234 | 6.1 | 15.6 | 0.00 | 0.00 | 0.00 | 42 | 1000.8 |
| 20260509183800 | 73 | 246 | 5.2 | 13.9 | 0.00 | 0.00 | 0.00 | 42 | 1000.8 |
| 20260509183039 | 72 | 257 | 6.1 | 13.9 | 0.00 | 0.00 | 0.00 | 43 | 1000.7 |
| 20260509182542 | 72 | 258 | 7.0 | 17.4 | 0.00 | 0.00 | 0.00 | 44 | 1000.7 |
| 20260509182043 | 72 | 265 | 6.1 | 17.4 | 0.00 | 0.00 | 0.00 | 45 | 1000.7 |
| 20260509181542 | 71 | 235 | 5.2 | 12.2 | 0.00 | 0.00 | 0.00 | 46 | 1000.8 |
| 20260509181040 | 71 | 294 | 4.3 | 9.6 | 0.00 | 0.00 | 0.00 | 48 | 1000.8 |
| 20260509180534 | 71 | 242 | 6.1 | 13.9 | 0.00 | 0.00 | 0.00 | 48 | 1000.8 |
| 20260509180028 | 71 | 227 | 7.0 | 16.5 | 0.00 | 0.00 | 0.00 | 49 | 1001.2 |
| 20260509175743 | 71 | 236 | 7.0 | 16.5 | 0.00 | 0.00 | 0.00 | 48 | 1001.2 |
| 20260509175015 | 70 | 223 | 6.1 | 12.2 | 0.00 | 0.00 | 0.00 | 49 | 1001.2 |
| 20260509174509 | 71 | 211 | 5.2 | 12.2 | 0.00 | 0.00 | 0.00 | 50 | 1001.2 |
| 20260509174004 | 70 | 218 | 6.1 | 14.8 | 0.00 | 0.00 | 0.00 | 51 | 1001.2 |
| 20260509173457 | 70 | 223 | 7.0 | 14.8 | 0.00 | 0.00 | 0.00 | 50 | 1001.0 |
| 20260509172958 | 70 | 227 | 6.1 | 14.8 | 0.00 | 0.00 | 0.00 | 49 | 1001.0 |
| 20260509172450 | 70 | 303 | 5.2 | 13.0 | 0.00 | 0.00 | 0.00 | 50 | 1001.0 |
| 20260509171938 | 69 | 225 | 5.2 | 13.0 | 0.00 | 0.00 | 0.00 | 52 | 1001.2 |
| 20260509171702 | 69 | 267 | 6.1 | 12.2 | 0.00 | 0.00 | 0.00 | 55 | 1001.2 |
| 20260509170926 | 69 | 219 | 6.1 | 12.2 | 0.00 | 0.00 | 0.00 | 54 | 1001.2 |
| 20260509170644 | 68 | 258 | 5.2 | 12.2 | 0.00 | 0.00 | 0.00 | 55 | 1001.2 |
| 20260509165910 | 68 | 265 | 6.1 | 15.6 | 0.00 | 0.00 | 0.00 | 58 | 1001.2 |
| 20260509165408 | 67 | 208 | 5.2 | 15.6 | 0.00 | 0.00 | 0.00 | 62 | 1001.2 |
| 20260509165123 | 67 | 238 | 5.2 | 12.2 | 0.00 | 0.00 | 0.00 | 64 | 1001.2 |
| 20260509164355 | 67 | 211 | 6.1 | 12.2 | 0.00 | 0.00 | 0.00 | 64 | 1001.2 |
| 20260509164109 | 66 | 253 | 5.2 | 11.3 | 0.00 | 0.00 | 0.00 | 63 | 1001.2 |
| 20260509163340 | 66 | 247 | 5.2 | 12.2 | 0.00 | 0.00 | 0.00 | 64 | 1001.1 |
| 20260509162839 | 66 | 243 | 5.2 | 12.2 | 0.00 | 0.00 | 0.00 | 63 | 1001.1 |
| 20260509162558 | 65 | 239 | 7.0 | 13.0 | 0.00 | 0.00 | 0.00 | 67 | 1001.1 |
| 20260509162054 | 65 | 230 | 6.1 | 13.0 | 0.00 | 0.00 | 0.00 | 68 | 1001.2 |
| 20260509161335 | 65 | 221 | 6.1 | 13.0 | 0.00 | 0.00 | 0.00 | 68 | 1001.2 |
| 20260509160835 | 64 | 222 | 6.1 | 13.0 | 0.00 | 0.00 | 0.00 | 66 | 1001.2 |
| 20260509160336 | 64 | 225 | 6.1 | 14.8 | 0.00 | 0.00 | 0.00 | 70 | 1001.5 |
| 20260509160054 | 64 | 245 | 6.1 | 14.8 | 0.00 | 0.00 | 0.00 | 69 | 1001.5 |
| 20260509155335 | 64 | 233 | 6.1 | 13.9 | 0.00 | 0.00 | 0.00 | 70 | 1001.5 |
| 20260509154836 | 63 | 230 | 5.2 | 12.2 | 0.00 | 0.00 | 0.00 | 70 | 1001.5 |
| 20260509154334 | 63 | 240 | 5.2 | 13.9 | 0.00 | 0.00 | 0.00 | 72 | 1001.5 |